Flag for U.S.A. Weather past 2 weeks in Pasadena, California, U.S.A.

Now
50 °F

Clear.


Feels Like: 50 °F
Forecast: 50 / 74 °F
Wind: No wind

Location: Burbank-Glendale-Pasadena Airport

Current Time: Dec 22, 2014 at 3:31:35 AM

Latest Report: Dec 22, 2014 at 2:53 AM


Visibility: 10 mi

Pressure: 30.01 "Hg

Humidity: 80%

Dew point: 44 °F

Location of PasadenaLocation

Historic Weather in Pasadena — Graph

°F

Pasadena temperature yesterday

Maximum temperature yesterday: 69 °F (at 3:53 PM)
Minimum temperature yesterday: 48 °F (at 6:53 AM)
Average temperature yesterday: 58 °F

Past Weeks' High & Low Weather Summary

 TemperatureHumidityPressure
High78 °F (Dec 8, 1:53 PM)94% (Dec 12, 1:56 AM)30.21 "Hg (Dec 12, 1:56 AM)
Low42 °F (Dec 14, 6:53 AM)28% (Dec 8, 1:53 PM)29.75 "Hg (Dec 12, 2:53 AM)
Average57 °F68%30.03 "Hg
* Reported Dec 7 1:53 AM — Dec 22 1:53 AM, Pasadena, Weather by CustomWeather, © 2014

Note: Actual official high and low records may vary slightly from our data, if they occured in-between our weather recording intervals... More about our weather records

Advertising

Pasadena weather history for previous 24 hours

 ConditionsComfort  
Time TempWeatherWind HumidityBarometerVisibility
1:53 AM
Dec 22
52 °FClear.No wind77%30.00 "Hg10 mi
12:53 AM53 °FClear.No wind77%30.00 "Hg10 mi
11:53 PM
Dec 21
55 °FClear.No wind72%30.02 "Hg10 mi
10:53 PM54 °FClear.5 mph83%30.03 "Hg6 mi
9:53 PM57 °FClear.3 mph78%30.04 "Hg8 mi
8:53 PM59 °FClear.3 mph75%30.03 "Hg8 mi
7:53 PM60 °FClear.6 mph72%30.03 "Hg8 mi
6:53 PM62 °FClear.No wind65%30.02 "Hg8 mi
5:53 PM65 °FClear.8 mph56%30.01 "Hg10 mi
4:53 PM68 °FClear.9 mph47%30.01 "Hg10 mi
3:53 PM69 °FSunny.8 mph47%30.01 "Hg9 mi
2:53 PM67 °FSunny.7 mph55%30.00 "Hg8 mi
1:53 PM67 °FSunny.7 mph53%30.01 "Hg10 mi
12:53 PM66 °FSunny.6 mph52%30.03 "Hg10 mi
11:53 AM63 °FSunny.5 mph56%30.07 "Hg9 mi
10:53 AM61 °FSunny.3 mph62%30.11 "Hg7 mi
9:53 AM58 °FSunny.No wind70%30.13 "Hg7 mi
8:53 AM55 °FSunny.No wind74%30.13 "Hg7 mi
7:53 AM51 °FSunny.No wind83%30.11 "Hg7 mi
6:53 AM48 °FFog.No wind86%30.11 "Hg6 mi
5:53 AM50 °FClear.No wind83%30.10 "Hg7 mi
4:53 AM50 °FClear.No wind86%30.09 "Hg7 mi
3:53 AM50 °FFog.No wind86%30.08 "Hg6 mi
Weather by CustomWeather, © 2014

See weather overviewHow to use our weather pages